Location: Freistadt
(48.5112°N, 14.5013°E)
Time: 22:24:20
(UTC+02:00)

VELOX 1 - Pass Details

Date: 29 February 2024
Orbit: 607 x 620 km, 98.4° (Epoch: 13 April)

Event Time Altitude Azimuth Distance (km) Brightness Sun altitude
Rises 20:17:31 0° 11° (N) 2,881 ? -25.8°
Reaches altitude 10° 20:19:43 10° 8° (N) 1,971 ? -26.1°
Enters shadow 20:23:41 60° 307° (NW) 702 ? -26.7°
Exits shadow 20:29:14 - 207° (SSW) 2,415 ? -27.6°
Sets 20:30:17 0° 206° (SSW) 2,853 ? -27.7°
